User: anonymous   Login
Location: Pabrico
(37.5827°N, 122.0063°W)
Time: 15:07:20
(UTC+00:00)
Language:

Cosmos 1805 - Orbit

View from above orbital plane
View from above orbital plane
View from above satellite
View from above satellite

Ground track
Ground track

The orbit data is extracted from the following two-line orbital elements,

1 17191U 86097A   24170.05603133  .00009198  00000-0  36547-3 0  9999
2 17191  82.4706  20.0466 0002081 217.0270 143.0824 15.25175132 50746
Epoch (UTC): 18 June 2024 01:20:41
Eccentricity: 0.0002081
inclination: 82.4706°
perigee height: 489 km
apogee height: 491 km
right ascension of ascending node: 20.0466°
argument of perigee: 217.0270°
revolutions per day: 15.25175132
mean anomaly at epoch: 143.0824°
orbit number at epoch: 5074

The dashed part of the orbit path shows where the satellite is in the earth's shadow,  

DLR